Edmonton City Centre Airport, Alberta

Past 24 Hour Conditions

This table is a summary of hourly weather conditions for the past 24 hours. This summary includes the following parameters: temperature, humidity, dew point, wind speed and direction, air pressure, visibility and/or wind chill and humidex.
Date / Time
(MDT)
Conditions Temp (°C) Humidity (%) Dew Point (°C) Wind (km/h) Pressure (kPa) Visibility (km)
23 April 2014
15:00 Light Rain 3   72 -2 WNW 22 99.8 8
14:00 Light Rain 3   73 -2 WNW 28 gust 37 99.7 8
13:00 Rain 4 72 -1 WNW 26 99.7 8
12:00 Light Rain 5 72 0 WSW 19 99.6 6
11:00 Light Rain 6 72 1 E 17 99.5 13
10:00 Light Rain 6 71 1 E 9 99.5 8
9:00 Rain 6 71 1 E 13 99.5 6
8:00 Light Rain 6 71 2 E 13 99.5 5
7:00 Rain 7 69 2 ENE 20 99.5 8
6:00 Light Rain 7 67 2 E 13 99.6 10
5:00 Light Rain 9 58 1 E 20 99.5 15
4:00 Light Rain 10 52 1 ESE 22 99.5 15
3:00 Cloudy 11 46 0 E 22 gust 33 99.5 15
2:00 Light Rain 11 50 1 ENE 19 gust 30 99.6 15
1:00 Cloudy 12 45 0 ENE 22 99.6 15
00:00 Mainly Clear 12 44 0 E 20 gust 30 99.7 15
22 April 2014
23:00 Mostly Cloudy 13 41 0 E 19 99.8 15
22:00 Mostly Cloudy 14 37 -1 ENE 20 99.9 15
21:00 Cloudy 14 35 -1 E 24 gust 33 99.9 15
20:00 Mostly Cloudy 16 31 -1 ENE 19 gust 35 99.9 15
19:00 Partly Cloudy 17 26 -2 ESE 9 99.9 15
18:00 Sunny 18 27 -1 S 11 99.9 15
17:00 Mainly Sunny 19   25 -1 SSE 22 gust 37 99.9 15
16:00 Mainly Sunny 19   27 -1 ENE 32 gust 41 100.0 15
15:00 Sunny 18 28 -1 E 28 gust 46 100.1 15
N/A
Not available
 ↑ 
Highest temperature
 ↓ 
Lowest temperature

If you require additional historical weather information, please visit Climate Data Online.